Weather History for Klawock, AK

Change the Weather History Date:

Wednesday, November 13, 2013

  Actual Average Record
Temperature  
Mean Temperature 44 °F -  
Max Temperature 46 °F 43 °F 52 °F (2003)
Min Temperature 42 °F 34 °F 26 °F (1998)
Degree Days  
Heating Degree Days 20    
Moisture  
Dew Point 43 °F    
Average Humidity 95    
Maximum Humidity 100    
Minimum Humidity 86    
Precipitation  
Precipitation 0.20 in - - ()
Sea Level Pressure  
Sea Level Pressure 30.12 in    
Wind  
Wind Speed 1 mph (SW)    
Max Wind Speed 7 mph    
Max Gust Speed -    
Visibility 7 miles    
Events Rain    
Averages and records for this station are not official NWS values.
T = Trace of Precipitation, MM = Missing Value Source: NWS Daily Summary

Daily Weather History Graph

Daily Weather History Graph

Search for Another Location

Airport:

Trip Planner

Search our weather history database for the weather conditions in past years. The results will help you decide how hot, cold, wet, or windy it might be!

Date:

Astronomy

Nov. 13, 2013 Rise Set
Actual Time 7:23 AM AKST 3:48 PM AKST
Civil Twilight 6:42 AM AKST 4:30 PM AKST
Nautical Twilight 5:57 AM AKST 5:15 PM AKST
Astronomical Twilight 5:14 AM AKST 5:58 PM AKST
Moon 2:14 PM AKST (11/13) 2:45 AM AKST (11/13)
Length of Visible Light 9h 47m
Length of Day
8h 25m
Waxing Gibbous, 86% of the Moon is Illuminated
Nov 13
Waxing Gibbous
Nov 17
Full
Nov 25
Last Quarter
Dec 2
New
Dec 9
First Quarter

Hourly Weather History & Observations

Time (AKST) Temp. Windchill Dew Point Humidity Pressure Visibility Wind Dir Wind Speed Gust Speed Precip Events Conditions
12:05 AM 43.0 °F - 42.1 °F 97% 29.96 in 10.0 mi Calm Calm - N/A   Overcast
12:31 AM 43.0 °F - 42.1 °F 97% 29.97 in 10.0 mi Calm Calm - N/A   Overcast
12:53 AM 43.0 °F - 42.1 °F 97% 29.98 in 8.0 mi Calm Calm - N/A   Overcast
1:02 AM 43.0 °F - 42.1 °F 97% 29.98 in 7.0 mi Calm Calm - N/A   Overcast
1:17 AM 43.0 °F - 42.1 °F 97% 29.99 in 10.0 mi Calm Calm - N/A   Overcast
1:24 AM 43.0 °F - 42.1 °F 97% 29.99 in 10.0 mi Calm Calm - N/A   Overcast
1:53 AM 43.0 °F - 42.1 °F 97% 30.00 in 10.0 mi Calm Calm - N/A   Overcast
2:01 AM 43.0 °F - 42.1 °F 97% 30.00 in 10.0 mi Calm Calm - N/A   Overcast
2:40 AM 43.0 °F - 42.1 °F 97% 30.02 in 10.0 mi Calm Calm - N/A   Overcast
3:03 AM 43.0 °F - 42.1 °F 97% 30.03 in 10.0 mi Calm Calm - N/A   Overcast
3:24 AM 44.1 °F - 43.0 °F 96% 30.03 in 10.0 mi Calm Calm - N/A   Overcast
3:43 AM 44.1 °F - 43.0 °F 96% 30.04 in 10.0 mi Calm Calm - N/A   Overcast
3:53 AM 43.0 °F - 42.1 °F 97% 30.04 in 8.0 mi Calm Calm - N/A   Overcast
4:26 AM 43.0 °F 41.3 °F 42.1 °F 97% 30.04 in 5.0 mi ENE 3.5 mph - 0.00 in Rain Light Rain
4:43 AM 44.1 °F - 43.0 °F 96% 30.04 in 2.5 mi Calm Calm - 0.01 in Rain Light Rain
4:53 AM 44.1 °F - 43.0 °F 96% 30.05 in 2.5 mi Calm Calm - 0.02 in Rain Light Rain
5:01 AM 43.0 °F - 43.0 °F 100% 30.05 in 4.0 mi Calm Calm - 0.00 in Rain Light Rain
5:20 AM 44.1 °F 42.5 °F 43.0 °F 96% 30.05 in 6.0 mi West 3.5 mph - 0.00 in   Overcast
5:53 AM 44.1 °F 42.5 °F 43.0 °F 96% 30.07 in 10.0 mi SSW 3.5 mph - 0.01 in   Overcast
6:11 AM 45.0 °F - 44.1 °F 97% 30.07 in 5.0 mi Calm Calm - N/A   Overcast
7:53 AM 46.0 °F 44.8 °F 45.0 °F 96% 30.11 in 10.0 mi South 3.5 mph - 0.00 in   Overcast
8:00 AM 46.0 °F 44.8 °F 45.0 °F 96% 30.11 in 8.0 mi South 3.5 mph - 0.00 in Rain Light Rain
8:31 AM 46.0 °F 43.1 °F 44.1 °F 93% 30.12 in 2.5 mi West 5.8 mph - 0.01 in Rain Light Rain
8:36 AM 45.0 °F 41.8 °F 44.1 °F 97% 30.12 in 2.0 mi West 5.8 mph - 0.01 in Rain Light Rain
8:43 AM 45.0 °F 43.5 °F 44.1 °F 97% 30.12 in 1.8 mi WSW 3.5 mph - 0.01 in Rain Light Rain
8:50 AM 44.6 °F 43.1 °F 44.6 °F 100% 30.13 in 3.0 mi WSW 3.5 mph - 0.01 in   Overcast
8:51 AM 45.0 °F 43.5 °F 44.1 °F 97% 30.13 in 3.0 mi SW 3.5 mph - 0.01 in   Overcast
8:59 AM 45.0 °F - 44.1 °F 97% 30.13 in 10.0 mi Calm Calm - N/A   Overcast
9:53 AM 45.0 °F - 44.1 °F 97% 30.15 in 10.0 mi Calm Calm - N/A   Overcast
10:20 AM 46.0 °F - 45.0 °F 96% 30.16 in 9.0 mi Calm Calm - N/A   Overcast
10:35 AM 45.0 °F 41.8 °F 44.1 °F 97% 30.17 in 1.8 mi West 5.8 mph - 0.01 in Rain Light Rain
10:45 AM 45.0 °F - 44.1 °F 97% 30.17 in 3.0 mi Calm Calm - 0.01 in Rain Light Rain
10:53 AM 45.0 °F - 43.0 °F 93% 30.17 in 10.0 mi Calm Calm - 0.01 in   Overcast
11:03 AM 46.0 °F - 44.1 °F 93% 30.17 in 10.0 mi Calm Calm - N/A   Overcast
11:36 AM 46.9 °F - 44.1 °F 90% 30.17 in 10.0 mi Calm Calm - N/A   Overcast
11:53 AM 46.9 °F - 45.0 °F 93% 30.18 in 10.0 mi Variable 3.5 mph - N/A   Overcast
12:14 PM 46.0 °F 44.8 °F 44.1 °F 93% 30.19 in 10.0 mi WSW 3.5 mph - 0.00 in   Overcast
12:53 PM 46.9 °F - 43.0 °F 86% 30.20 in 10.0 mi Calm Calm - 0.01 in   Mostly Cloudy
1:53 PM 45.0 °F - 42.1 °F 90% 30.21 in 10.0 mi Calm Calm - 0.00 in Rain Light Rain
3:53 PM 44.1 °F - 41.0 °F 89% 30.22 in 10.0 mi Calm Calm - 0.00 in   Overcast
4:26 PM 44.1 °F 41.5 °F 41.0 °F 89% 30.22 in 10.0 mi South 4.6 mph - 0.00 in Rain Light Rain
4:53 PM 44.1 °F 42.5 °F 42.1 °F 93% 30.23 in 10.0 mi Variable 3.5 mph - 0.00 in Rain Light Rain
5:49 PM 44.6 °F - 42.8 °F 93% 30.23 in 3.0 mi Calm Calm - 0.09 in Rain Light Rain
5:53 PM 44.1 °F - 42.1 °F 93% 30.23 in 3.0 mi Calm Calm - 0.09 in Rain Light Rain
6:03 PM 44.1 °F 42.5 °F 42.1 °F 93% 30.22 in 2.5 mi Variable 3.5 mph - 0.02 in Rain Rain
6:13 PM 44.1 °F 40.1 °F 42.1 °F 93% 30.22 in 5.0 mi South 6.9 mph - 0.03 in Rain Light Rain
6:53 PM 44.1 °F 42.5 °F 43.0 °F 96% 30.22 in 6.0 mi Variable 3.5 mph - 0.04 in Rain Light Rain
7:13 PM 44.1 °F - 43.0 °F 96% 30.22 in 7.0 mi Calm Calm - 0.01 in Rain Light Rain
7:53 PM 44.1 °F 41.5 °F 43.0 °F 96% 30.22 in 10.0 mi South 4.6 mph - 0.01 in   Overcast
8:16 PM 44.1 °F 42.5 °F 42.1 °F 93% 30.23 in 10.0 mi South 3.5 mph - N/A   Overcast
11:53 PM 42.1 °F - 39.9 °F 92% 30.28 in 10.0 mi Calm Calm - N/A   Mostly Cloudy